ALPHASAT

Last updated on Tue Oct 08 2024 00:02:39 GMT+0000 (Coordinated Universal Time)

1 39215U 13038A 24281.35327185 .00000146 00000+0 00000+0 0 9995 2 39215 2.9048 6.4955 0003775 199.8215 322.2247 1.00272370 37825
UTC large
Height (km)
Speed (km/s)
/
Latitude / Longitude
Inclination (degrees)
Orbital Period (minutes)
Azimuth
Elevation
Range (km)
Doppler Factor

Next 0 passes for location: London (51.5072 / 0.1276)

Sorry there are no passes over London.